EHI
1 6 13 13 9 6 3 0 0 0 0 0 0 2 6 6 5 8 24 54 73 61 40 37 37 22 7 2 0 0 0 0 0 0 0 0 0 0 0 0 0 0 0 0 0 0 0 0 0
1 5 9 9 8 5 2 0 0 0 0 0 0 2 4 4 6 13 34 61 71 56 38 35 36 23 9 3 1 1 0 0 0 0 0 0 0 0 0 0 0 0 0 0 0 0 0 0 0
1 3 4 6 6 3 0 0 0 0 0 0 1 2 3 4 10 26 49 66 67 53 42 41 38 25 11 5 3 2 1 0 0 0 0 0 0 0 0 0 0 0 0 0 0 0 0 0 0
3 3 2 3 2 1 0 0 0 0 0 0 3 6 7 8 20 39 56 66 65 56 51 49 43 28 13 6 3 2 1 0 0 0 0 0 0 0 0 0 0 0 0 0 0 0 0 0 0
3 2 1 0 0 0 0 0 0 0 0 1 8 16 17 17 29 42 51 60 65 64 57 50 45 32 15 6 3 2 1 0 0 0 0 0 0 0 0 0 0 0 0 0 0 0 0 0 0
1 1 0 0 0 0 0 0 0 0 0 2 13 26 30 31 36 38 41 52 66 70 61 50 43 32 16 6 3 2 1 0 0 0 0 0 0 0 0 0 0 0 0 0 0 0 0 0 0
0 0 0 0 0 0 0 0 0 0 1 3 13 30 43 46 42 36 37 48 66 73 64 49 38 27 14 6 3 1 1 0 0 0 0 0 0 0 0 0 0 0 0 0 0 0 0 0 0
0 0 0 0 0 0 0 0 0 0 2 3 11 32 54 57 48 41 40 51 69 75 64 48 35 23 11 5 2 1 1 0 0 0 0 0 0 0 0 0 0 0 0 0 0 0 0 0 0
0 0 0 0 0 0 0 0 0 0 2 6 17 39 58 61 56 51 50 62 79 81 64 50 38 23 9 4 2 1 1 0 0 0 0 0 0 0 0 0 0 0 0 0 0 0 0 0 0
0 0 0 0 0 0 0 0 0 1 3 10 28 49 60 62 64 64 64 76 90 88 71 57 45 25 12 9 6 2 1 0 0 0 0 0 0 0 1 1 0 0 0 0 0 0 0 0 0
0 0 0 0 0 0 0 0 0 1 4 13 33 55 64 65 70 73 76 87 96 91 80 70 54 34 25 23 14 5 2 1 0 1 1 0 1 1 2 2 0 0 0 0 0 0 0 0 0
0 0 0 0 0 0 0 0 0 0 4 14 32 53 64 68 74 81 86 93 97 92 85 80 68 54 49 42 25 11 7 5 3 4 3 2 2 4 4 2 1 0 0 0 0 1 0 0 0
0 0 0 0 0 0 0 0 0 2 6 15 29 48 62 68 76 85 91 94 95 92 87 86 81 74 69 59 38 25 21 15 12 11 8 4 5 9 8 4 2 1 1 0 0 0 0 0 0
0 0 0 0 0 0 0 0 0 3 10 16 28 44 57 67 77 85 92 93 93 91 89 88 87 82 79 69 52 39 34 29 25 21 16 11 12 17 16 9 4 4 5 4 2 0 0 0 0
0 0 0 0 0 0 0 0 1 5 11 17 25 39 55 67 75 82 88 90 89 89 90 87 84 82 80 71 58 46 40 40 41 38 30 23 24 25 21 11 6 9 13 11 4 0 0 1 1
0 0 0 0 0 0 0 1 3 5 10 16 22 35 55 68 73 77 83 84 84 86 88 85 79 78 77 71 61 52 48 51 55 51 40 32 30 27 20 12 10 14 15 11 5 1 1 2 2
0 0 0 0 0 0 0 1 3 4 8 15 22 35 54 68 73 77 80 80 80 82 84 82 78 78 78 73 67 61 60 63 62 53 41 35 31 24 17 15 15 14 11 7 4 3 3 3 3
0 0 0 0 0 0 0 1 2 4 6 12 23 37 53 66 75 79 80 79 78 80 81 79 77 78 77 74 69 64 64 66 62 51 43 39 32 22 16 16 18 14 9 7 6 5 6 4 2
0 0 0 0 0 0 0 1 2 4 5 10 23 40 54 65 73 78 78 77 77 78 79 77 76 75 74 72 67 60 60 63 60 52 47 41 32 23 17 16 17 13 11 10 8 7 6 4 1
0 0 0 0 0 0 1 1 2 4 5 9 22 39 51 59 67 72 73 71 71 73 75 74 74 73 71 69 65 58 55 56 55 53 48 40 32 24 19 19 16 14 15 13 9 7 5 3 1
0 0 0 0 0 0 1 2 4 6 6 8 19 33 42 50 61 67 69 67 65 65 65 66 69 70 68 65 61 55 48 45 47 51 46 39 34 25 20 21 19 16 16 13 8 4 2 1 0
0 0 0 0 0 0 0 1 4 7 7 9 18 26 32 42 56 65 67 65 60 57 56 58 62 66 64 60 55 47 39 38 42 46 44 40 36 26 20 21 21 18 15 11 5 1 0 0 0
0 0 0 0 0 0 0 0 2 5 7 10 16 21 26 35 50 61 63 59 55 52 51 52 56 60 58 54 49 40 33 35 40 43 43 42 36 25 18 18 19 18 15 11 6 3 2 1 1
0 0 0 0 0 0 0 0 2 4 6 10 15 19 24 32 44 54 54 51 51 49 48 49 51 53 52 48 42 34 30 33 39 42 41 38 31 23 17 16 17 17 16 13 9 7 4 2 2
0 0 0 0 0 0 0 0 2 4 5 8 13 19 25 32 42 47 46 46 47 47 46 46 46 47 45 40 35 30 27 30 34 35 33 28 21 18 18 18 18 16 14 13 10 7 5 3 3
0 0 0 0 0 0 0 1 2 3 3 5 11 17 24 31 37 39 39 41 43 44 43 42 42 41 38 34 29 24 22 23 24 25 24 19 14 15 20 23 20 16 13 11 8 6 5 4 4
0 0 0 0 0 0 1 1 2 2 2 5 9 16 21 27 32 32 33 37 39 40 40 39 38 37 34 30 24 19 16 16 16 20 20 16 13 16 22 23 19 15 12 11 8 6 6 6 5
0 0 0 0 0 0 1 2 2 3 4 7 13 17 21 26 29 30 32 35 36 38 37 35 34 32 30 26 21 17 15 15 15 17 19 20 19 20 21 18 15 13 11 10 9 7 6 6 4
0 0 0 0 0 0 0 1 1 3 5 10 16 18 21 25 29 31 35 36 36 35 34 31 29 28 26 23 20 18 17 15 14 14 18 24 27 25 21 16 13 11 10 11 10 7 5 4 4
0 0 0 0 0 0 0 0 1 3 6 10 15 18 20 25 30 32 35 38 36 34 33 29 26 24 23 20 19 19 18 15 12 12 17 27 32 28 21 15 12 9 10 12 10 6 4 4 3
Wind_Speed
10 12 11 9 5 5 8 1 8 8 8 10 10 10 14 13 9 10 12 19 24 22 20 19 17 17 16 16 15 14 14 14 14 13 13 13 13 13 13 13 13 14 14 14 14 14 14 14 13
11 14 11 7 6 5 3 3 9 8 8 8 9 11 13 13 13 14 15 20 24 22 19 18 19 17 17 16 15 15 14 14 13 13 13 13 13 13 13 13 13 14 14 14 14 14 14 13 12
13 17 9 8 9 7 1 4 8 7 7 6 8 10 11 10 12 14 17 22 22 20 19 19 20 18 17 16 15 14 14 14 13 13 13 13 13 13 13 13 14 14 14 14 13 13 13 12 11
10 10 8 9 11 5 2 5 5 5 6 6 7 9 11 9 10 15 19 21 21 21 20 20 20 19 17 16 15 15 14 14 13 13 13 13 13 13 13 13 14 14 13 13 13 13 12 11 9
11 9 10 11 13 3 3 5 3 4 4 5 9 12 11 10 15 18 18 20 20 20 20 19 20 19 18 16 15 15 14 14 13 13 13 13 13 13 13 13 13 13 13 13 12 12 11 10 8
9 9 10 10 9 2 3 3 2 3 4 6 9 12 9 10 13 16 17 17 19 21 20 18 19 19 17 16 16 15 14 14 13 13 13 13 13 13 13 13 13 13 12 12 12 11 10 8 6
11 11 14 13 8 3 3 2 2 3 4 4 6 10 10 12 13 15 15 16 18 20 20 17 16 16 17 16 16 15 14 13 13 13 13 13 13 13 13 13 12 12 12 11 11 10 9 7 5
11 11 17 14 9 2 4 3 2 2 3 4 4 8 11 14 15 16 15 15 17 18 18 17 16 14 13 13 15 15 14 14 13 13 13 14 14 14 14 12 11 12 11 10 9 9 8 7 4
14 12 13 13 6 1 4 2 3 2 6 4 6 12 15 17 18 17 14 14 15 17 16 16 15 14 13 13 14 14 14 13 13 12 14 13 9 10 9 13 12 11 10 9 8 7 7 6 5
12 11 15 11 6 2 1 2 3 3 4 5 10 15 17 17 18 17 16 16 16 16 16 14 15 14 13 11 11 9 9 9 8 8 9 6 5 6 10 12 11 10 9 8 7 6 6 6 4
15 16 15 12 7 6 4 4 3 4 3 5 10 15 15 17 17 16 15 14 15 14 14 15 14 11 12 9 9 6 5 6 6 8 7 5 5 6 8 6 6 6 7 5 6 5 4 2 1
17 16 15 12 8 7 7 6 5 5 3 7 11 16 18 18 17 16 15 13 14 14 14 14 14 10 9 10 8 7 7 5 5 6 7 5 3 4 5 4 5 4 3 2 2 2 2 2 2
16 16 15 13 11 9 10 9 8 5 5 8 11 15 16 17 16 15 14 14 14 12 13 13 12 10 8 8 6 7 7 7 6 5 5 5 4 4 4 3 2 3 3 3 1 2 2 1 1
14 14 15 14 13 11 11 11 10 6 6 9 11 13 15 15 16 15 14 13 13 14 13 13 12 10 8 7 4 5 6 6 6 6 6 6 4 4 4 4 2 2 3 2 2 3 2 1 1
15 16 15 15 15 13 12 12 9 5 5 8 10 12 13 14 14 14 14 13 14 13 12 12 11 11 9 8 6 5 5 7 6 5 6 5 5 5 4 4 2 2 3 3 2 2 2 2 2
14 16 16 16 16 14 13 11 5 5 6 6 7 9 11 12 14 13 14 12 12 12 12 12 13 12 10 8 6 5 5 6 5 6 5 5 5 6 4 4 3 3 3 2 2 1 1 1 1
16 16 17 15 13 10 12 9 5 7 8 8 8 8 10 12 13 12 13 13 11 12 12 12 11 13 11 9 7 5 4 5 5 6 6 5 6 6 4 3 3 3 2 2 2 2 1 1 1
13 14 13 11 7 9 11 8 7 8 8 8 8 8 9 11 11 11 12 12 11 11 12 12 11 11 11 8 6 4 5 5 5 5 6 7 6 6 4 4 4 3 2 2 2 2 1 1 1
15 15 12 7 6 9 10 9 7 7 7 7 7 8 9 10 11 10 10 11 12 11 12 12 12 11 10 8 8 7 6 5 5 5 8 7 7 6 4 4 5 3 2 2 3 2 2 2 1
15 15 13 7 7 9 9 9 7 7 9 8 8 8 9 9 10 11 11 11 11 12 12 12 13 13 11 8 7 6 7 5 5 5 7 8 7 7 6 5 5 4 3 3 2 2 2 2 2
14 15 12 9 10 10 9 10 7 4 3 4 6 8 9 10 12 12 12 11 11 12 12 12 13 13 12 10 7 6 5 4 5 6 6 7 7 7 5 6 5 4 4 3 3 3 3 2 2
14 14 13 12 10 8 8 7 5 5 4 6 5 6 8 9 11 12 12 11 11 11 11 10 11 11 11 11 10 11 9 8 7 6 6 7 7 7 6 6 5 4 3 4 4 5 3 3 2
14 12 12 12 11 10 8 8 5 6 6 6 7 8 8 9 10 11 11 11 10 11 11 10 11 11 11 11 11 10 8 7 6 7 8 7 6 7 7 6 5 4 3 4 3 3 3 2 3
13 12 11 9 9 11 10 9 5 5 6 8 9 9 8 9 9 9 9 9 9 10 10 10 11 11 12 12 11 10 10 8 8 9 8 7 6 5 7 7 5 5 4 4 3 3 3 2 1
14 11 7 7 8 8 7 7 4 7 7 7 8 9 9 10 9 9 9 10 10 10 10 10 12 12 12 12 11 10 10 9 9 9 8 8 7 6 7 7 5 5 4 4 4 3 3 3 2
14 13 9 7 5 5 6 7 4 4 7 7 8 8 8 9 9 8 9 9 10 10 10 11 11 11 12 11 10 9 9 7 7 8 8 8 6 6 7 6 6 5 5 5 4 4 4 3 3
13 12 11 10 6 4 5 6 5 1 5 6 7 9 8 8 10 8 9 9 9 10 10 11 11 10 11 10 9 9 9 8 8 8 7 6 5 6 8 7 7 6 5 5 5 3 4 3 3
14 11 7 9 7 7 6 6 4 4 4 5 6 8 8 8 9 9 9 9 8 9 9 9 10 10 10 10 9 10 9 9 8 8 7 6 6 6 8 7 7 6 6 5 5 4 4 4 4
12 14 9 7 8 8 5 2 1 3 0 3 5 7 9 9 10 9 9 9 9 8 9 9 10 10 10 10 9 9 9 9 8 7 7 6 6 7 7 7 6 6 6 5 5 4 5 5 5
12 12 10 7 7 7 6 2 1 2 3 1 5 6 8 9 10 10 11 11 10 9 8 8 10 10 10 10 9 8 8 9 9 8 7 7 7 7 7 7 6 7 7 6 6 6 6 6 6
Wind_Direction
224 238 235 249 249 260 276 39 76 70 70 63 57 64 64 59 74 102 127 129 125 127 133 135 133 133 131 129 127 126 124 120 117 114 111 109 106 104 102 101 100 99 99 98 96 95 95 96 98
247 247 242 247 251 260 273 62 82 76 80 84 79 77 79 72 86 112 125 125 125 129 138 137 135 134 133 132 131 129 126 123 120 117 114 112 111 108 105 104 103 101 100 100 99 97 97 98 100
258 261 261 248 243 257 236 87 93 90 90 91 86 75 73 84 93 116 127 129 129 134 136 135 139 136 135 134 132 130 128 126 123 120 118 115 113 111 108 106 104 103 102 101 100 99 99 100 102
249 244 241 257 269 261 99 85 94 106 108 95 98 88 77 73 101 120 133 133 134 136 134 138 140 138 137 136 134 132 131 129 127 123 120 117 115 113 111 107 106 105 103 101 100 101 101 102 104
242 256 250 263 272 266 96 92 107 114 119 99 94 94 85 85 108 127 138 137 138 135 132 140 141 139 139 139 138 136 135 133 130 127 124 121 119 116 113 109 107 105 104 102 102 104 104 104 106
247 249 257 266 275 266 108 115 129 122 124 109 108 109 103 115 124 138 143 140 137 132 133 138 142 141 141 141 141 139 138 136 133 131 128 124 122 118 115 113 110 108 106 105 104 106 108 109 108
254 269 273 275 267 240 128 123 141 132 100 114 122 117 126 133 139 142 140 138 135 133 134 142 145 144 145 144 143 141 140 138 137 134 132 129 126 122 119 116 114 113 112 111 110 110 112 116 121
255 277 283 279 260 207 128 139 166 147 123 124 123 121 138 140 145 140 143 140 135 134 139 148 148 147 149 147 146 145 144 143 141 139 138 135 132 130 128 124 119 117 117 117 118 120 122 128 141
250 260 272 280 290 128 128 171 178 153 139 131 92 104 131 143 146 145 146 143 139 139 143 149 148 152 154 151 148 150 149 149 147 145 146 146 148 142 143 122 126 124 125 126 129 134 140 147 170
236 250 262 283 320 348 159 217 194 195 162 132 102 109 133 150 153 155 158 156 149 147 151 151 152 159 160 153 146 158 158 156 163 153 160 174 153 139 127 129 134 136 137 140 147 154 169 187 178
237 249 271 294 309 310 290 262 245 228 188 141 143 143 153 158 158 161 165 161 153 153 157 153 155 163 159 143 155 163 153 157 170 161 169 164 140 133 128 142 142 150 159 165 155 179 203 190 144
240 256 268 282 295 294 287 274 258 248 163 133 151 158 161 167 165 168 168 162 155 161 162 155 157 162 152 148 160 160 154 166 166 162 169 154 150 139 141 148 157 163 166 165 170 167 130 131 155
240 253 263 268 271 268 269 266 261 246 126 134 146 158 165 169 168 168 167 166 160 163 162 155 155 157 149 142 163 166 156 164 156 161 169 155 153 143 139 138 157 159 148 155 154 103 90 70 65
262 260 262 263 258 254 256 259 252 233 164 158 158 162 170 171 170 169 168 169 168 169 165 158 157 153 146 148 168 153 155 150 152 161 166 165 148 137 136 144 163 140 137 130 137 126 137 171 88
262 266 263 256 252 245 247 252 247 233 186 175 169 173 173 172 174 174 172 172 172 171 165 157 157 153 156 158 171 162 154 154 154 152 156 162 144 139 144 148 162 134 120 118 132 131 152 166 151
259 253 255 252 240 232 235 247 239 193 188 187 190 182 173 170 178 175 168 171 171 168 161 161 166 161 164 163 175 165 160 154 148 145 150 161 143 150 152 152 152 137 136 145 135 169 164 115 132
247 244 249 251 233 226 230 237 214 188 192 193 196 181 173 170 176 170 167 172 169 165 162 163 164 164 167 166 174 172 157 150 150 149 153 162 158 162 165 142 129 153 148 154 175 148 134 144 180
243 245 250 250 219 226 235 235 201 190 201 196 190 177 170 169 170 168 169 170 166 166 164 166 166 164 165 165 169 163 163 160 156 153 152 162 165 166 166 137 141 166 151 132 104 122 127 159 220
265 282 275 262 242 235 241 243 226 186 207 211 189 173 170 170 162 162 168 168 166 167 167 169 170 166 165 167 172 169 172 169 163 159 156 167 167 162 171 148 152 168 150 151 154 148 167 209 195
251 261 268 262 245 244 249 252 243 203 214 207 185 178 174 167 155 157 165 167 171 172 172 173 173 171 172 172 170 169 165 170 169 161 158 170 167 163 177 152 166 164 152 167 169 155 183 214 183
251 255 259 256 257 252 255 254 243 222 232 242 193 175 176 171 162 163 169 173 178 178 179 183 178 174 174 168 166 164 156 170 166 159 163 175 169 171 176 165 170 167 173 168 178 177 206 220 208
248 253 262 263 262 259 254 261 217 215 203 233 208 191 174 165 160 166 170 175 181 182 181 177 175 174 172 169 175 173 171 177 173 167 167 174 174 175 176 174 169 171 171 159 195 187 204 205 223
249 258 260 264 265 270 264 262 236 202 191 213 194 200 176 161 163 167 173 175 177 181 179 177 176 177 175 177 178 178 178 179 170 169 165 171 177 181 180 173 164 171 176 169 193 168 206 207 224
243 251 259 260 261 253 256 254 241 187 191 198 186 182 159 154 155 160 164 162 168 177 176 174 176 178 176 178 181 182 181 179 174 172 166 171 174 183 180 172 167 178 180 168 178 171 201 229 247
230 237 242 245 244 256 276 261 223 180 179 176 164 158 148 146 148 155 160 165 171 176 175 175 174 178 178 179 181 185 183 183 180 175 172 176 176 180 180 173 168 180 170 167 171 180 204 207 215
225 233 232 245 250 279 312 281 247 175 152 140 145 143 142 146 147 152 159 160 169 172 171 172 172 176 177 180 182 183 182 182 183 183 178 182 180 175 167 162 169 174 171 177 172 190 197 188 200
231 232 236 244 244 256 244 269 290 145 127 140 148 140 146 147 141 150 154 154 160 164 165 167 166 170 174 176 176 181 184 186 183 180 181 179 176 167 160 164 171 174 176 177 172 203 190 170 193
235 232 238 250 249 251 239 223 233 196 184 162 152 142 142 145 142 146 146 149 152 153 156 161 164 166 165 170 177 178 182 184 179 176 182 176 171 160 158 164 169 171 174 177 182 194 181 182 206
223 237 241 259 266 267 256 225 314 321 14 130 133 138 144 150 142 142 142 144 143 149 159 162 165 165 166 172 179 175 178 181 176 177 180 173 162 157 161 167 170 172 178 181 187 206 180 192 206
237 240 242 249 267 281 280 208 214 330 333 182 140 141 143 144 143 141 140 142 146 154 160 163 167 168 169 171 174 175 174 175 177 180 181 172 164 164 167 174 177 183 186 186 193 213 198 196 201